Stündliche Wetter Dabburiya

Heute, 29 Oktober, Donnerstag

Zeit Temperatur Niederschläge Wind Luftdruck Luftfeuchtigkeit
00:00 +22°C° 0 mm 1 m/S 744 mmHg 88%
01:00 +22°C° 0 mm 1 m/S 744 mmHg 90%
02:00 +22°C° 0 mm 1 m/S 744 mmHg 91%
03:00 +21°C° 0 mm 1 m/S 744 mmHg 91%
04:00 +21°C° 0 mm 1 m/S 744 mmHg 92%
05:00 +21°C° 0 mm 1 m/S 744 mmHg 92%
06:00 +20°C° 0 mm 0 m/S 744 mmHg 86%
07:00 +21°C° 0 mm 0 m/S 744 mmHg 80%
08:00 +23°C° 0 mm 0 m/S 744 mmHg 73%
09:00 +27°C° 0 mm 1 m/S 744 mmHg 63%
10:00 +29°C° 0 mm 1 m/S 744 mmHg 53%
11:00 +31°C° 0 mm 2 m/S 744 mmHg 43%
12:00 +31°C° 0 mm 3 m/S 744 mmHg 44%
13:00 +33°C° 0 mm 3 m/S 744 mmHg 45%
14:00 +33°C° 0 mm 4 m/S 743 mmHg 45%
15:00 +30°C° 0 mm 4 m/S 743 mmHg 53%
16:00 +28°C° 0 mm 3 m/S 743 mmHg 61%
17:00 +26°C° 0 mm 2 m/S 743 mmHg 68%
18:00 +25°C° 0 mm 2 m/S 743 mmHg 73%
19:00 +24°C° 0 mm 2 m/S 743 mmHg 79%
20:00 +23°C° 0 mm 2 m/S 744 mmHg 84%
21:00 +22°C° 0 mm 1 m/S 744 mmHg 85%
22:00 +22°C° 0 mm 1 m/S 744 mmHg 86%
23:00 +21°C° 0 mm 1 m/S 744 mmHg 86%

Morgen, 30 Oktober, Freitag

Zeit Temperatur Niederschläge Wind Luftdruck Luftfeuchtigkeit
00:00 +21°C° 0 mm 1 m/S 743 mmHg 87%
01:00 +21°C° 0 mm 1 m/S 743 mmHg 87%
02:00 +21°C° 0 mm 1 m/S 743 mmHg 87%
03:00 +21°C° 0 mm 1 m/S 743 mmHg 86%
04:00 +20°C° 0 mm 1 m/S 743 mmHg 86%
05:00 +18°C° 0 mm 0 m/S 743 mmHg 85%
06:00 +22°C° 0 mm 1 m/S 743 mmHg 77%
07:00 +24°C° 0 mm 1 m/S 744 mmHg 70%
08:00 +25°C° 0 mm 1 m/S 744 mmHg 62%
09:00 +27°C° 0 mm 1 m/S 744 mmHg 55%
10:00 +29°C° 0 mm 2 m/S 744 mmHg 47%
11:00 +31°C° 0 mm 2 m/S 743 mmHg 40%
12:00 +31°C° 0 mm 3 m/S 743 mmHg 40%
13:00 +31°C° 0 mm 3 m/S 742 mmHg 40%
14:00 +33°C° 0 mm 4 m/S 742 mmHg 40%
15:00 +29°C° 0 mm 4 m/S 742 mmHg 48%
16:00 +27°C° 0 mm 3 m/S 742 mmHg 55%
17:00 +25°C° 0 mm 3 m/S 742 mmHg 63%
18:00 +24°C° 0 mm 3 m/S 742 mmHg 69%
19:00 +23°C° 0 mm 2 m/S 742 mmHg 75%
20:00 +21°C° 0 mm 2 m/S 742 mmHg 80%
21:00 +20°C° 0 mm 2 m/S 742 mmHg 82%
22:00 +20°C° 0 mm 2 m/S 742 mmHg 84%
23:00 +21°C° 0 mm 1 m/S 742 mmHg 86%

übermorgen, 31 Oktober, Samstag

Zeit Temperatur Niederschläge Wind Luftdruck Luftfeuchtigkeit
00:00 +20°C° 0 mm 1 m/S 742 mmHg 86%
01:00 +20°C° 0 mm 1 m/S 741 mmHg 87%
02:00 +20°C° 0 mm 1 m/S 741 mmHg 88%
03:00 +20°C° 0 mm 1 m/S 741 mmHg 87%
04:00 +20°C° 0 mm 1 m/S 742 mmHg 87%
05:00 +20°C° 0 mm 1 m/S 742 mmHg 87%
06:00 +21°C° 0 mm 1 m/S 742 mmHg 80%
07:00 +23°C° 0 mm 1 m/S 742 mmHg 72%
08:00 +24°C° 0 mm 1 m/S 742 mmHg 65%
09:00 +26°C° 0 mm 1 m/S 742 mmHg 57%
10:00 +28°C° 0 mm 2 m/S 742 mmHg 49%
11:00 +30°C° 0 mm 2 m/S 742 mmHg 41%
12:00 +30°C° 0 mm 3 m/S 741 mmHg 42%
13:00 +30°C° 0 mm 3 m/S 741 mmHg 42%
14:00 +30°C° 0 mm 4 m/S 740 mmHg 43%
15:00 +28°C° 0 mm 4 m/S 740 mmHg 51%
16:00 +26°C° 0 mm 3 m/S 740 mmHg 59%
17:00 +25°C° 0 mm 3 m/S 740 mmHg 67%
18:00 +24°C° 0 mm 3 m/S 741 mmHg 72%
19:00 +23°C° 0 mm 2 m/S 741 mmHg 78%
20:00 +21°C° 0 mm 2 m/S 741 mmHg 83%
21:00 +20°C° 0 mm 2 m/S 741 mmHg 84%
22:00 +21°C° 0 mm 1 m/S 741 mmHg 86%
23:00 +21°C° 0 mm 1 m/S 741 mmHg 88%

1 November, Sonntag

Zeit Temperatur Niederschläge Wind Luftdruck Luftfeuchtigkeit
00:00 +21°C° 0 mm 1 m/S 741 mmHg 88%
01:00 +20°C° 0 mm 1 m/S 741 mmHg 89%
02:00 +20°C° 0 mm 1 m/S 741 mmHg 90%
03:00 +20°C° 0 mm 1 m/S 741 mmHg 90%
04:00 +20°C° 0 mm 1 m/S 742 mmHg 89%
05:00 +20°C° 0 mm 1 m/S 742 mmHg 89%
06:00 +21°C° 0 mm 1 m/S 742 mmHg 83%
07:00 +22°C° 0 mm 1 m/S 742 mmHg 77%
08:00 +24°C° 0 mm 1 m/S 743 mmHg 71%
09:00 +25°C° 0 mm 1 m/S 743 mmHg 64%
10:00 +27°C° 0 mm 2 m/S 743 mmHg 57%
11:00 +28°C° 0 mm 3 m/S 743 mmHg 50%
12:00 +28°C° 0 mm 3 m/S 743 mmHg 51%
13:00 +28°C° 0 mm 4 m/S 743 mmHg 51%
14:00 +28°C° 0 mm 5 m/S 742 mmHg 52%
15:00 +27°C° 0 mm 4 m/S 742 mmHg 58%
16:00 +25°C° 0 mm 4 m/S 742 mmHg 65%
17:00 +22°C° 0 mm 3 m/S 742 mmHg 71%
18:00 +21°C° 0 mm 2 m/S 742 mmHg 76%
19:00 +20°C° 0 mm 2 m/S 743 mmHg 80%
20:00 +20°C° 0 mm 1 m/S 743 mmHg 85%
21:00 +20°C° 0 mm 1 m/S 743 mmHg 86%
22:00 +20°C° 0 mm 1 m/S 743 mmHg 87%
23:00 +20°C° 0 mm 1 m/S 743 mmHg 88%

2 November, Montag

Zeit Temperatur Niederschläge Wind Luftdruck Luftfeuchtigkeit
00:00 +19°C° 0 mm 1 m/S 743 mmHg 88%
01:00 +19°C° 0 mm 1 m/S 743 mmHg 88%
02:00 +19°C° 0 mm 1 m/S 743 mmHg 89%
03:00 +19°C° 0 mm 1 m/S 743 mmHg 89%
04:00 +19°C° 0 mm 1 m/S 743 mmHg 89%
05:00 +19°C° 0 mm 1 m/S 743 mmHg 89%
06:00 +20°C° 0 mm 1 m/S 743 mmHg 83%
07:00 +21°C° 0 mm 1 m/S 744 mmHg 78%
08:00 +21°C° 0 mm 2 m/S 744 mmHg 73%
09:00 +24°C° 0 mm 2 m/S 744 mmHg 64%
10:00 +26°C° 0 mm 2 m/S 744 mmHg 55%
11:00 +28°C° 0 mm 2 m/S 744 mmHg 47%
12:00 +28°C° 0 mm 3 m/S 744 mmHg 47%
13:00 +28°C° 0 mm 4 m/S 744 mmHg 48%
14:00 +28°C° 0 mm 5 m/S 743 mmHg 48%
15:00 +26°C° 0 mm 5 m/S 743 mmHg 54%
16:00 +25°C° 0 mm 4 m/S 743 mmHg 60%
17:00 +22°C° 0 mm 3 m/S 743 mmHg 66%
18:00 +21°C° 0 mm 3 m/S 744 mmHg 70%
19:00 +20°C° 0 mm 2 m/S 744 mmHg 75%
20:00 +20°C° 0 mm 1 m/S 744 mmHg 79%
21:00 +20°C° 0.1 mm 1 m/S 744 mmHg 81%
22:00 +20°C° 0.1 mm 1 m/S 744 mmHg 83%
23:00 +17°C° 0.1 mm 0 m/S 744 mmHg 84%

3 November, Dienstag

Zeit Temperatur Niederschläge Wind Luftdruck Luftfeuchtigkeit
00:00 +17°C° 0 mm 0 m/S 744 mmHg 85%
01:00 +17°C° 0 mm 0 m/S 744 mmHg 86%
02:00 +17°C° 0 mm 0 m/S 744 mmHg 86%
03:00 +17°C° 0 mm 0 m/S 744 mmHg 86%
04:00 +17°C° 0 mm 0 m/S 744 mmHg 87%
05:00 +17°C° 0 mm 0 m/S 744 mmHg 87%
06:00 +20°C° 0 mm 1 m/S 745 mmHg 81%
07:00 +21°C° 0 mm 1 m/S 745 mmHg 76%
08:00 +23°C° 0 mm 1 m/S 745 mmHg 70%
09:00 +24°C° 0 mm 1 m/S 746 mmHg 65%
10:00 +25°C° 0 mm 1 m/S 746 mmHg 60%
11:00 +26°C° 0 mm 2 m/S 746 mmHg 54%
12:00 +27°C° 0 mm 3 m/S 746 mmHg 53%
13:00 +27°C° 0 mm 4 m/S 745 mmHg 52%
14:00 +27°C° 0 mm 4 m/S 745 mmHg 51%
15:00 +26°C° 0 mm 4 m/S 745 mmHg 57%
16:00 +23°C° 0 mm 4 m/S 745 mmHg 62%
17:00 +21°C° 0 mm 3 m/S 745 mmHg 68%
18:00 +21°C° 0 mm 3 m/S 745 mmHg 72%
19:00 +20°C° 0 mm 2 m/S 746 mmHg 76%
20:00 +20°C° 0 mm 1 m/S 746 mmHg 80%
21:00 +20°C° 0 mm 1 m/S 746 mmHg 82%
22:00 +19°C° 0 mm 1 m/S 746 mmHg 83%
23:00 +19°C° 0 mm 1 m/S 746 mmHg 84%
Mehr zeigen

Wir brauchen deine Erlaubnis

Meteoprog und unser Service Anbieter werden persönliche Daten aufbewahren, so wie Cookies, Geräte Bezeichnung oder ähnliche Technologien von deinem Gerät und Prozess, so wie Persönliche Daten Inhalte und Werbungen, genauso wie social Media und den Verkehr zu analysieren.

  • Aufbewahrung und/oder Zugang zu deiner Geräte Informationen.

    Cookies, Geräte Bezeichnung oder andere Informationen, können aufbewahrt oder Zugang zu deinem Gerät erhalten, für den Grund, der oben angegeben wird.

  • Personalisierte Werbung und Inhalte, Messungen, Einblick in das Publikum und Produkt Entwicklung.

    Werbungen und Inhalte können personalisiert werden, basierend auf ein Profil. Mehr Daten können besser personalisierte Werbungen und Inhalte hinzufügen. Werbung und Inhalte können gezeigt und gemessen werden. Einblicke über das Publikum, welche die Werbung gesehen haben und den Inhalt, können abgeleitet werden. So wie Daten können genutzt werden, um es zu verbessern oder die Benutzer Erfahrung zu verbessern das System und die Software.

Wenn du “Ich stimme zu” klickst, erlaubst du uns, die Cookies zu benutzen die Geräte Bezeichnung, den Web oder ähnliche Technologien zu benutzen. Deine Settings, können in deinem Gerät bei deinem Browser geändert werden.

Für den bestimmten Zweck, berechtigten Interessen beruhen darauf, mehr als auf den Inhalt. Du kannst mehr darüber in unseren Privaten und Cookie Politik lesen.